TimePST,TemperatureF,Dew PointF,Humidity,Sea Level PressureIn,VisibilityMPH,Wind Direction,Wind SpeedMPH,Gust SpeedMPH,PrecipitationIn,Events,Conditions,WindDirDegrees,DateUTC
12:56 AM,57.0,55.0,93,30.06,-9999.0,ESE,4.6,-,N/A,,Scattered Clouds,120,2012-11-30 08:56:00
1:56 AM,57.9,55.0,90,30.05,-9999.0,SSE,9.2,-,0.00,,Scattered Clouds,150,2012-11-30 09:56:00
2:56 AM,57.0,55.0,93,30.03,-9999.0,ESE,9.2,-,N/A,,Partly Cloudy,120,2012-11-30 10:56:00
3:56 AM,55.9,55.0,97,30.03,-9999.0,ESE,9.2,-,N/A,,Mostly Cloudy,120,2012-11-30 11:56:00
4:56 AM,57.0,54.0,89,30.01,-9999.0,East,9.2,-,N/A,,Mostly Cloudy,90,2012-11-30 12:56:00
5:56 AM,57.9,54.0,87,30.00,-9999.0,SE,9.2,-,N/A,,Overcast,130,2012-11-30 13:56:00
6:56 AM,59.0,55.0,87,29.99,-9999.0,South,13.8,-,N/A,,Partly Cloudy,170,2012-11-30 14:56:00
7:11 AM,60.8,55.4,82,29.97,10.0,South,16.1,-,N/A,,Overcast,170,2012-11-30 15:11:00
7:56 AM,61.0,55.0,81,29.99,10.0,South,16.1,-,N/A,,Overcast,170,2012-11-30 15:56:00
8:56 AM,64.9,55.0,70,29.99,10.0,South,19.6,-,N/A,,Mostly Cloudy,180,2012-11-30 16:56:00
9:56 AM,64.9,55.9,73,30.00,10.0,SE,11.5,-,N/A,,Mostly Cloudy,140,2012-11-30 17:56:00
10:56 AM,66.9,55.0,66,30.01,10.0,South,16.1,-,N/A,,Overcast,170,2012-11-30 18:56:00
11:56 AM,68.0,54.0,61,29.99,10.0,South,17.3,24.2,N/A,,Overcast,170,2012-11-30 19:56:00
12:56 PM,68.0,53.1,59,29.99,10.0,South,20.7,29.9,N/A,,Overcast,190,2012-11-30 20:56:00
1:18 PM,66.2,53.6,64,30.00,10.0,South,17.3,26.5,0.00,Rain,Light Rain,190,2012-11-30 21:18:00
1:56 PM,64.0,55.0,73,30.00,8.0,South,16.1,-,0.01,Rain,Light Rain,180,2012-11-30 21:56:00
2:05 PM,64.4,55.4,73,30.00,8.0,South,18.4,25.3,0.00,,Overcast,180,2012-11-30 22:05:00
2:37 PM,64.4,55.4,73,30.01,2.5,SSW,12.7,27.6,0.00,Rain,Light Rain,200,2012-11-30 22:37:00
2:56 PM,59.0,57.0,93,30.01,2.5,North,16.1,-,0.03,Rain,Light Rain,10,2012-11-30 22:56:00
3:01 PM,59.0,57.2,94,30.02,2.5,North,16.1,-,0.01,Rain,Light Rain,350,2012-11-30 23:01:00
3:39 PM,59.0,57.2,94,29.99,8.0,NE,16.1,-,0.04,,Overcast,50,2012-11-30 23:39:00
3:56 PM,57.9,57.0,97,30.01,8.0,ENE,12.7,-,0.04,,Mostly Cloudy,60,2012-11-30 23:56:00
4:56 PM,57.9,57.0,97,30.03,8.0,East,8.1,-,N/A,,Mostly Cloudy,80,2012-12-01 00:56:00
5:56 PM,57.9,55.9,93,30.05,8.0,East,5.8,-,N/A,,Mostly Cloudy,90,2012-12-01 01:56:00
6:56 PM,57.0,55.9,96,30.07,-9999.0,South,3.5,-,N/A,,Overcast,170,2012-12-01 02:56:00
7:56 PM,57.0,55.9,96,30.07,-9999.0,South,9.2,-,N/A,,Mostly Cloudy,170,2012-12-01 03:56:00
8:56 PM,57.9,55.9,93,30.09,-9999.0,SE,5.8,-,N/A,,Overcast,140,2012-12-01 04:56:00
9:56 PM,59.0,55.9,90,30.10,-9999.0,SE,9.2,-,0.00,Rain,Light Rain,140,2012-12-01 05:56:00
10:56 PM,57.9,55.9,93,30.11,-9999.0,SE,8.1,-,0.00,,Scattered Clouds,140,2012-12-01 06:56:00
11:56 PM,55.9,54.0,93,30.11,-9999.0,SE,6.9,-,N/A,,Clear,130,2012-12-01 07:56:00